Tracking 29892 objects as of 21-Nov-2024
HD Live streaming from Space Station
objects crossing your sky now

STARLINK-11188

Track STARLINK-11188 now!
10-day predictions
STARLINK-11188 is classified as:


NORAD ID: 60722
Int'l Code: 2024-152C
Perigee: 366.0 km
Apogee: 367.9 km
Inclination: 53.2 °
Period: 91.7 minutes
Semi major axis: 6737 km
RCS: Unknown
Launch date: August 28, 2024
Source: United States (US)
Launch site: AIR FORCE EASTERN TEST RANGE (AFETR)
Your satellite tracking list
Your tracking list is empty




NASA's NSSDC Master Catalog

Two Line Element Set (TLE):
1 60722U 24152C   24325.93472894  .00007711  00000-0  68506-4 0  9998
2 60722  53.1585 291.9065 0001430  84.1825 275.9356 15.69689797 14542
Source of the keplerian elements: AFSPC